Spokane, WA
on Tuesday, November 20, 2012

Tuesday
Previous Day Next Day
Daily Summary
 ActualAverageRecord
Temperature
Mean Temperature °F 34°F  
Max Temperature 50°F 39°F 61°F (1917)
Min Temperature 42°F 29°F 4°F (1985)
Degree Days
Heating Degree Days 19 31  
Month to date heating degree days 495 548  
Since 1 July heating degree days 1101 1336  
Cooling Degree Days 0 0  
Month to date cooling degree days 0 0  
Year to date cooling degree days 535 450  
Moisture
Dew Point 44°F   
Average Humidity 88    
Maximum Humidity 100    
Minimum Humidity 76    
Precipitation
Precipitation 0.41 in 0.08 in 0.95 in (1998)
Month to date precipitation 2.58 1.47  
Year to date precipitation 18.08 13.43  
Snow
Snow 0.00 in 0.30 in 8.20 in (2003)
Month to date snowfall 5.9 3.7  
Since 1 July snowfall 5.9 3.8  
Since 1 September snowfall 5.9 3.8  
Snow Depth 0.00 in   
Wind
Wind Speed 11 mph   
Max Wind Speed 26 mph   
Max Gust Speed 32 mph   
Visibility 9 miles   
Events Rain   

Key: T is trace of precipitation, MM is missing value
Source: NWS Daily Summary
Time(PST)TemperatureDew PointHumidity Pressure Visibility Wind DirectionWind SpeedGust SpeedPrecipitationEvents Conditions
12:53 AM 45.0°F 43.0°F 93% 29.80 in 6.0 miles SW 20.7 mph 32.2 mph 0.07 in Rain Rain
1:26 AM 44.6°F 44.6°F 100% 29.77 in 10.0 miles SSW 16.1 mph 21.9 mph 0.03 in Rain Light Rain
1:53 AM 46.0°F 44.1°F 93% 29.78 in 10.0 miles South 16.1 mph 23.0 mph 0.03 in   Overcast
2:53 AM 46.0°F 43.0°F 89% 29.79 in 10.0 miles South 17.3 mph 25.3 mph 0.00 in   Overcast
3:23 AM 46.4°F 42.8°F 87% 29.78 in 10.0 miles SSW 16.1 mph 24.2 mph N/A   Overcast
3:53 AM 46.0°F 43.0°F 89% 29.79 in 10.0 miles South 12.7 mph 20.7 mph 0.00 in Rain Light Rain
4:14 AM 46.4°F 42.8°F 87% 29.79 in 10.0 miles South 11.5 mph - 0.00 in Rain Light Rain
4:53 AM 45.0°F 43.0°F 93% 29.82 in 10.0 miles SSW 11.5 mph - 0.00 in Rain Light Rain
5:53 AM 45.0°F 44.1°F 97% 29.79 in 10.0 miles SSE 5.8 mph - 0.02 in   Overcast
6:32 AM 44.6°F 44.6°F 100% 29.75 in 10.0 miles SSE 9.2 mph - 0.00 in Rain Light Rain
6:53 AM 45.0°F 44.1°F 97% 29.75 in 10.0 miles SE 11.5 mph - 0.00 in Rain Light Rain
7:16 AM 44.6°F 44.6°F 100% 29.75 in 10.0 miles South 8.1 mph - 0.00 in Rain Light Rain
7:42 AM 44.6°F 44.6°F 100% 29.75 in 8.0 miles SSE 8.1 mph - 0.01 in Rain Light Rain
7:53 AM 45.0°F 44.1°F 97% 29.76 in 6.0 miles SE 8.1 mph - 0.02 in Rain Light Rain
8:45 AM 46.4°F 44.6°F 93% 29.75 in 7.0 miles SSE 9.2 mph - 0.04 in Rain Light Rain
8:53 AM 46.0°F 45.0°F 96% 29.77 in 7.0 miles SSE 10.4 mph - 0.04 in Rain Light Rain
9:12 AM 46.4°F 44.6°F 93% 29.74 in 6.0 miles SSE 11.5 mph - 0.02 in Rain Light Rain
9:36 AM 46.4°F 44.6°F 93% 29.72 in 7.0 miles SSE 11.5 mph - 0.03 in Rain Light Rain
9:53 AM 46.0°F 45.0°F 96% 29.76 in 10.0 miles South 8.1 mph - 0.03 in   Overcast
10:53 AM 46.0°F 45.0°F 96% 29.73 in 9.0 miles South 9.2 mph - 0.02 in Rain Light Rain
11:09 AM 46.4°F 44.6°F 93% 29.71 in 7.0 miles South 10.4 mph - 0.01 in Rain Light Rain
11:53 AM 46.0°F 45.0°F 96% 29.72 in 7.0 miles SSE 8.1 mph - 0.05 in Rain Light Rain
12:53 PM 46.0°F 45.0°F 96% 29.72 in 6.0 miles SSE 10.4 mph - 0.05 in Rain Light Rain
1:53 PM 46.9°F 46.0°F 97% 29.70 in 10.0 miles SE 12.7 mph - 0.09 in   Mostly Cloudy
2:03 PM 46.4°F 46.4°F 100% 29.68 in 10.0 miles SSE 9.2 mph - N/A   Mostly Cloudy
2:27 PM 48.2°F 46.4°F 93% 29.68 in 10.0 miles SSE 10.4 mph - N/A   Mostly Cloudy
2:53 PM 48.0°F 46.0°F 93% 29.70 in 10.0 miles South 10.4 mph - N/A   Scattered Clouds
3:53 PM 48.9°F 45.0°F 86% 29.70 in 10.0 miles South 13.8 mph - N/A   Scattered Clouds
4:53 PM 48.0°F 45.0°F 89% 29.70 in 10.0 miles SSW 11.5 mph - N/A   Scattered Clouds
5:53 PM 46.0°F 43.0°F 89% 29.73 in 10.0 miles South 8.1 mph - N/A   Mostly Cloudy
6:53 PM 45.0°F 43.0°F 93% 29.73 in 10.0 miles SSE 8.1 mph - N/A   Mostly Cloudy
7:53 PM 46.0°F 41.0°F 83% 29.74 in 10.0 miles South 13.8 mph - N/A   Overcast
8:53 PM 46.0°F 39.0°F 76% 29.74 in 10.0 miles SSW 16.1 mph - N/A   Overcast
9:53 PM 44.1°F 39.0°F 82% 29.73 in 10.0 miles South 9.2 mph - 0.00 in   Overcast
10:53 PM 43.0°F 39.0°F 86% 29.73 in 10.0 miles South 11.5 mph - N/A   Mostly Cloudy
11:53 PM 43.0°F 39.9°F 89% 29.71 in 10.0 miles SSE 8.1 mph - N/A   Mostly Cloudy
Moon Phase
Nov. 20 Nov. 28 Dec. 06 Dec. 13 Dec. 20
Sunrise:07:03 AM (PST) Moon Rise:12:24 PM (PST)
Sunset:04:07 PM (PST) Moon Set:No Moon Set/

Copyright © 2014 The Weather Underground, Inc.